| time (UTC) | temp F | wind direction | speed knots | gust knots | rain 1hr in | rain 24hr in | rain mn in | humidity % | barometer mb |
| 20260505111536 | 34 | 136 | 0.0 | 0.0 | 0.00 | 0.00 | 0.00 | 71 | 745.9 |
| 20260505101534 | 35 | 136 | 0.0 | 0.0 | 0.00 | 0.00 | 0.00 | 70 | 745.9 |
| 20260505100026 | 35 | 136 | 0.0 | 0.0 | 0.00 | 0.00 | 0.00 | 70 | 745.7 |
| 20260505094523 | 36 | 136 | 0.0 | 0.0 | 0.00 | 0.00 | 0.00 | 69 | 745.9 |
| 20260505093033 | 36 | 136 | 0.0 | 0.0 | 0.00 | 0.00 | 0.00 | 68 | 745.9 |
| 20260505091525 | 36 | 136 | 0.0 | 2.6 | 0.00 | 0.00 | 0.00 | 68 | 745.9 |
| 20260505090019 | 36 | 136 | 0.0 | 0.0 | 0.00 | 0.00 | 0.00 | 67 | 746.0 |
| 20260505084518 | 37 | 136 | 0.0 | 0.0 | 0.00 | 0.00 | 0.00 | 69 | 746.2 |
| 20260505083024 | 37 | 136 | 0.0 | 0.0 | 0.00 | 0.00 | 0.00 | 69 | 746.3 |
| 20260505081517 | 37 | 136 | 0.0 | 0.0 | 0.00 | 0.00 | 0.00 | 70 | 746.3 |
| 20260505080016 | 37 | 136 | 0.0 | 0.0 | 0.00 | 0.00 | 0.00 | 69 | 746.4 |
| 20260505074515 | 37 | 136 | 0.0 | 0.0 | 0.00 | 0.00 | 0.00 | 68 | 746.2 |
| 20260505073013 | 37 | 136 | 0.0 | 0.0 | 0.00 | 0.00 | 0.00 | 68 | 746.3 |
| 20260505071511 | 37 | 136 | 0.0 | 0.0 | 0.00 | 0.00 | 0.00 | 68 | 746.3 |
| 20260505070011 | 37 | 136 | 0.0 | 0.0 | 0.00 | 0.00 | 0.00 | 67 | 746.2 |
| 20260505064508 | 38 | 136 | 0.0 | 0.0 | 0.00 | 0.00 | 0.00 | 67 | 746.0 |
| 20260505063007 | 38 | 136 | 0.0 | 0.0 | 0.00 | 0.00 | 0.00 | 67 | 746.2 |
| 20260505061508 | 38 | 136 | 0.0 | 0.0 | 0.00 | 0.00 | 0.00 | 66 | 746.0 |
| 20260505060001 | 38 | 136 | 0.0 | 0.0 | 0.00 | 0.00 | 0.00 | 65 | 746.2 |
| 20260505054608 | 38 | 136 | 0.0 | 0.0 | 0.00 | 0.00 | 0.00 | 65 | 746.2 |
| 20260505053100 | 38 | 136 | 0.0 | 0.9 | 0.00 | 0.00 | 0.00 | 64 | 746.2 |
| 20260505051614 | 39 | 136 | 0.0 | 0.0 | 0.00 | 0.00 | 0.00 | 64 | 746.4 |
| 20260505041559 | 42 | 136 | 0.0 | 0.0 | 0.00 | 0.00 | 0.00 | 60 | 746.4 |
| 20260505040055 | 42 | 136 | 0.0 | 0.0 | 0.00 | 0.00 | 0.00 | 59 | 746.3 |
| 20260505034554 | 43 | 136 | 0.0 | 0.0 | 0.00 | 0.00 | 0.00 | 58 | 746.3 |
| 20260505033055 | 44 | 136 | 0.0 | 0.0 | 0.00 | 0.00 | 0.00 | 56 | 746.2 |
| 20260505031557 | 45 | 136 | 0.0 | 0.0 | 0.00 | 0.00 | 0.00 | 54 | 746.2 |
| 20260505030053 | 46 | 136 | 0.0 | 0.0 | 0.00 | 0.00 | 0.00 | 53 | 746.1 |
| 20260505024554 | 46 | 136 | 0.0 | 0.0 | 0.00 | 0.00 | 0.00 | 51 | 746.0 |
| 20260505023051 | 48 | 136 | 0.0 | 0.0 | 0.00 | 0.00 | 0.00 | 48 | 745.8 |
| 20260505021553 | 49 | 136 | 0.0 | 1.7 | 0.00 | 0.00 | 0.00 | 44 | 745.8 |
| 20260505014552 | 51 | 136 | 0.0 | 0.0 | 0.00 | 0.00 | 0.00 | 40 | 745.8 |
| 20260505013049 | 52 | 136 | 0.0 | 3.5 | 0.00 | 0.00 | 0.00 | 35 | 745.8 |
| 20260505011551 | 52 | 136 | 0.9 | 3.5 | 0.00 | 0.00 | 0.00 | 34 | 745.7 |
| 20260505004547 | 53 | 133 | 0.0 | 2.6 | 0.00 | 0.00 | 0.00 | 33 | 746.0 |
| 20260505003049 | 54 | 132 | 2.6 | 5.2 | 0.00 | 0.00 | 0.00 | 32 | 745.9 |
| 20260505001545 | 54 | 133 | 0.9 | 9.6 | 0.00 | 0.00 | 0.00 | 31 | 746.2 |
| 20260505000047 | 55 | 134 | 4.3 | 9.6 | 0.00 | 0.00 | 0.00 | 32 | 746.4 |
| 20260504234543 | 57 | 153 | 1.7 | 6.1 | 0.00 | 0.00 | 0.00 | 33 | 746.2 |
| 20260504233059 | 56 | 143 | 0.0 | 4.3 | 0.00 | 0.00 | 0.00 | 34 | 746.2 |
| 20260504231545 | 56 | 123 | 2.6 | 13.0 | 0.00 | 0.00 | 0.00 | 31 | 746.1 |
| 20260504230050 | 56 | 169 | 0.0 | 6.1 | 0.00 | 0.00 | 0.00 | 35 | 745.9 |
| 20260504224537 | 56 | 186 | 0.9 | 8.7 | 0.00 | 0.00 | 0.00 | 37 | 746.0 |
| 20260504223037 | 57 | 235 | 1.7 | 5.2 | 0.00 | 0.00 | 0.00 | 34 | 746.0 |
| 20260504221534 | 57 | 205 | 1.7 | 7.8 | 0.00 | 0.00 | 0.00 | 37 | 746.0 |
| 20260504220034 | 57 | 197 | 3.5 | 9.6 | 0.00 | 0.00 | 0.00 | 35 | 746.1 |
| 20260504214530 | 58 | 213 | 1.7 | 8.7 | 0.00 | 0.00 | 0.00 | 36 | 746.3 |
| 20260504213029 | 59 | 111 | 1.7 | 7.0 | 0.00 | 0.00 | 0.00 | 35 | 746.4 |
| 20260504211526 | 59 | 142 | 2.6 | 7.0 | 0.00 | 0.00 | 0.00 | 35 | 746.6 |
| 20260504210031 | 59 | 131 | 3.5 | 8.7 | 0.00 | 0.00 | 0.00 | 35 | 746.8 |
| 20260504204522 | 60 | 227 | 2.6 | 7.8 | 0.00 | 0.00 | 0.00 | 34 | 746.9 |
| 20260504203024 | 59 | 115 | 1.7 | 9.6 | 0.00 | 0.00 | 0.00 | 36 | 747.0 |
| 20260504201518 | 59 | 202 | 1.7 | 5.2 | 0.00 | 0.00 | 0.00 | 42 | 747.1 |
| 20260504200017 | 58 | 130 | 2.6 | 5.2 | 0.00 | 0.00 | 0.00 | 41 | 747.1 |
| 20260504194515 | 58 | 269 | 1.7 | 7.0 | 0.00 | 0.00 | 0.00 | 42 | 747.1 |
| 20260504193017 | 59 | 161 | 0.9 | 7.0 | 0.00 | 0.00 | 0.00 | 43 | 747.4 |
| 20260504191521 | 58 | 128 | 0.9 | 7.0 | 0.00 | 0.00 | 0.00 | 44 | 747.5 |
| 20260504190010 | 58 | 113 | 2.6 | 7.8 | 0.00 | 0.00 | 0.00 | 44 | 747.5 |
| 20260504184508 | 58 | 279 | 0.0 | 7.0 | 0.00 | 0.00 | 0.00 | 45 | 747.6 |
| 20260504183007 | 57 | 146 | 3.5 | 10.4 | 0.00 | 0.00 | 0.00 | 44 | 747.5 |
| 20260504181603 | 57 | 159 | 1.7 | 6.1 | 0.00 | 0.00 | 0.00 | 46 | 747.6 |
| 20260504180100 | 57 | 130 | 1.7 | 6.1 | 0.00 | 0.00 | 0.00 | 47 | 747.7 |
| 20260504174600 | 56 | 138 | 1.7 | 7.0 | 0.00 | 0.00 | 0.00 | 47 | 747.9 |
| 20260504173058 | 56 | 136 | 1.7 | 5.2 | 0.00 | 0.00 | 0.00 | 50 | 748.0 |
| 20260504171550 | 54 | 133 | 1.7 | 6.1 | 0.00 | 0.00 | 0.00 | 52 | 748.3 |